| time (UTC) | temp F | wind direction | speed MPH | gust MPH | rain 1hr in | rain 24hr in | rain mn in | humidity % | barometer mb |
| 20260504023017 | 75 | 158 | 1.0 | 3.0 | 0.00 | 0.00 | 0.00 | 53 | 1009.1 |
| 20260504022057 | 76 | 158 | 1.0 | 3.0 | 0.00 | 0.00 | 0.00 | 52 | 1009.2 |
| 20260504021017 | 76 | 158 | 1.0 | 3.0 | 0.00 | 0.00 | 0.00 | 50 | 1009.2 |
| 20260504020017 | 77 | 158 | 1.0 | 3.0 | 0.00 | 0.00 | 0.00 | 50 | 1009.2 |
| 20260504015017 | 78 | 158 | 1.0 | 3.0 | 0.00 | 0.00 | 0.00 | 47 | 1009.2 |
| 20260504014017 | 79 | 0.0 | 3.0 | 0.00 | 0.00 | 0.00 | 46 | 1009.4 | |
| 20260504013017 | 79 | 158 | 1.0 | 3.0 | 0.00 | 0.00 | 0.00 | 44 | 1009.4 |
| 20260504012017 | 79 | 158 | 1.0 | 4.0 | 0.00 | 0.00 | 0.00 | 43 | 1009.4 |
| 20260504011017 | 79 | 0.0 | 3.0 | 0.00 | 0.00 | 0.00 | 46 | 1009.6 | |
| 20260504010017 | 79 | 0.0 | 3.0 | 0.00 | 0.00 | 0.00 | 45 | 1009.6 | |
| 20260504005017 | 79 | 158 | 1.0 | 4.0 | 0.00 | 0.00 | 0.00 | 44 | 1009.7 |
| 20260504004017 | 80 | 158 | 1.0 | 3.0 | 0.00 | 0.00 | 0.00 | 45 | 1009.8 |
| 20260504003017 | 80 | 0.0 | 2.0 | 0.00 | 0.00 | 0.00 | 45 | 1009.8 | |
| 20260504002017 | 80 | 158 | 1.0 | 3.0 | 0.00 | 0.00 | 0.00 | 45 | 1009.9 |
| 20260504001017 | 80 | 0.0 | 5.0 | 0.00 | 0.00 | 0.00 | 43 | 1010.0 | |
| 20260504000017 | 80 | 0.0 | 2.0 | 0.00 | 0.00 | 0.00 | 45 | 1010.1 | |
| 20260503235017 | 80 | 158 | 1.0 | 4.0 | 0.00 | 0.00 | 0.00 | 46 | 1010.2 |
| 20260503234017 | 80 | 158 | 1.0 | 4.0 | 0.00 | 0.00 | 0.00 | 45 | 1010.3 |
| 20260503233018 | 80 | 0.0 | 3.0 | 0.00 | 0.00 | 0.00 | 44 | 1010.4 | |
| 20260503232016 | 80 | 225 | 1.0 | 4.0 | 0.00 | 0.00 | 0.00 | 43 | 1010.5 |
| 20260503231017 | 80 | 158 | 1.0 | 4.0 | 0.00 | 0.00 | 0.00 | 43 | 1010.7 |
| 20260503230017 | 80 | 158 | 2.0 | 6.0 | 0.00 | 0.00 | 0.00 | 43 | 1010.8 |
| 20260503225016 | 80 | 158 | 1.0 | 5.0 | 0.00 | 0.00 | 0.00 | 42 | 1010.9 |
| 20260503224016 | 80 | 158 | 1.0 | 4.0 | 0.00 | 0.00 | 0.00 | 42 | 1011.0 |
| 20260503223017 | 81 | 225 | 1.0 | 6.0 | 0.00 | 0.00 | 0.00 | 43 | 1011.2 |
| 20260503222016 | 81 | 203 | 1.0 | 6.0 | 0.00 | 0.00 | 0.00 | 44 | 1011.2 |
| 20260503221017 | 81 | 225 | 1.0 | 5.0 | 0.00 | 0.00 | 0.00 | 45 | 1011.2 |
| 20260503220016 | 81 | 158 | 1.0 | 5.0 | 0.00 | 0.00 | 0.00 | 47 | 1011.3 |
| 20260503215017 | 81 | 158 | 1.0 | 4.0 | 0.00 | 0.00 | 0.00 | 48 | 1011.4 |
| 20260503214016 | 81 | 0.0 | 3.0 | 0.00 | 0.00 | 0.00 | 48 | 1011.5 | |
| 20260503213016 | 81 | 225 | 1.0 | 3.0 | 0.00 | 0.00 | 0.00 | 49 | 1011.5 |
| 20260503212036 | 80 | 158 | 1.0 | 5.0 | 0.00 | 0.00 | 0.00 | 48 | 1011.7 |
| 20260503211036 | 80 | 158 | 1.0 | 5.0 | 0.00 | 0.00 | 0.00 | 49 | 1011.7 |
| 20260503210016 | 79 | 158 | 1.0 | 4.0 | 0.00 | 0.00 | 0.00 | 50 | 1011.9 |
| 20260503205056 | 79 | 180 | 1.0 | 2.0 | 0.00 | 0.00 | 0.00 | 51 | 1012.0 |
| 20260503204017 | 78 | 158 | 1.0 | 4.0 | 0.00 | 0.00 | 0.00 | 52 | 1012.1 |
| 20260503203017 | 78 | 225 | 1.0 | 3.0 | 0.00 | 0.00 | 0.00 | 49 | 1012.3 |
| 20260503202016 | 77 | 0.0 | 3.0 | 0.00 | 0.00 | 0.00 | 51 | 1012.4 | |
| 20260503201036 | 76 | 0.0 | 2.0 | 0.00 | 0.00 | 0.00 | 53 | 1012.5 | |
| 20260503200016 | 76 | 225 | 1.0 | 3.0 | 0.00 | 0.00 | 0.00 | 52 | 1012.6 |
| 20260503195017 | 76 | 0.0 | 3.0 | 0.00 | 0.00 | 0.00 | 56 | 1012.8 | |
| 20260503194016 | 75 | 225 | 1.0 | 4.0 | 0.00 | 0.00 | 0.00 | 59 | 1012.9 |
| 20260503193017 | 75 | 0.0 | 3.0 | 0.00 | 0.00 | 0.00 | 59 | 1013.0 | |
| 20260503192118 | 74 | 0.0 | 2.0 | 0.00 | 0.00 | 0.00 | 60 | 1013.2 | |
| 20260503191036 | 73 | 158 | 1.0 | 4.0 | 0.00 | 0.00 | 0.00 | 61 | 1013.3 |
| 20260503190019 | 73 | 158 | 1.0 | 4.0 | 0.00 | 0.00 | 0.00 | 59 | 1013.4 |
| 20260503185036 | 72 | 225 | 1.0 | 4.0 | 0.00 | 0.00 | 0.00 | 57 | 1013.5 |
| 20260503184036 | 72 | 158 | 1.0 | 3.0 | 0.00 | 0.00 | 0.00 | 56 | 1013.7 |
| 20260503183016 | 71 | 0.0 | 2.0 | 0.00 | 0.00 | 0.00 | 58 | 1013.8 | |
| 20260503182017 | 70 | 158 | 1.0 | 3.0 | 0.00 | 0.00 | 0.00 | 60 | 1013.9 |
| 20260503181016 | 69 | 0.0 | 3.0 | 0.00 | 0.00 | 0.00 | 61 | 1013.9 | |
| 20260503180016 | 68 | 158 | 1.0 | 3.0 | 0.00 | 0.00 | 0.00 | 63 | 1014.0 |
| 20260503175036 | 68 | 158 | 1.0 | 3.0 | 0.00 | 0.00 | 0.00 | 63 | 1014.1 |
| 20260503174016 | 67 | 158 | 1.0 | 2.0 | 0.00 | 0.00 | 0.00 | 64 | 1014.2 |
| 20260503173016 | 66 | 158 | 1.0 | 4.0 | 0.00 | 0.00 | 0.00 | 68 | 1014.4 |
| 20260503172016 | 65 | 158 | 1.0 | 3.0 | 0.00 | 0.00 | 0.00 | 71 | 1014.4 |
| 20260503171016 | 64 | 0.0 | 4.0 | 0.00 | 0.00 | 0.00 | 72 | 1014.4 | |
| 20260503131015 | 50 | 0.0 | 0.0 | 0.00 | 0.00 | 0.00 | 94 | 1014.5 | |
| 20260503081017 | 54 | 0.0 | 0.0 | 0.00 | 0.00 | 0.00 | 84 | 1014.9 | |
| 20260503072035 | 55 | 0.0 | 0.0 | 0.00 | 0.00 | 0.00 | 84 | 1014.8 | |
| 20260503071019 | 56 | 0.0 | 0.0 | 0.00 | 0.00 | 0.00 | 83 | 1014.8 | |
| 20260503055017 | 58 | 0.0 | 0.0 | 0.00 | 0.00 | 0.00 | 81 | 1014.6 | |
| 20260503054017 | 58 | 0.0 | 0.0 | 0.00 | 0.00 | 0.00 | 80 | 1014.6 | |
| 20260503053017 | 59 | 0.0 | 0.0 | 0.00 | 0.00 | 0.00 | 79 | 1014.6 | |
| 20260503052017 | 59 | 0.0 | 0.0 | 0.00 | 0.00 | 0.00 | 79 | 1014.6 | |
| 20260503051038 | 60 | 0.0 | 0.0 | 0.00 | 0.00 | 0.00 | 78 | 1014.5 | |
| 20260503050037 | 60 | 0.0 | 0.0 | 0.00 | 0.00 | 0.00 | 79 | 1014.5 | |
| 20260503045017 | 61 | 0.0 | 0.0 | 0.00 | 0.00 | 0.00 | 80 | 1014.5 | |
| 20260503044038 | 61 | 0.0 | 0.0 | 0.00 | 0.00 | 0.00 | 77 | 1014.4 | |
| 20260503043017 | 61 | 0.0 | 0.0 | 0.00 | 0.00 | 0.00 | 78 | 1014.3 | |
| 20260503042058 | 62 | 0.0 | 0.0 | 0.00 | 0.00 | 0.00 | 76 | 1014.2 | |
| 20260503041017 | 62 | 0.0 | 0.0 | 0.00 | 0.00 | 0.00 | 77 | 1014.1 | |
| 20260503040017 | 63 | 0.0 | 0.0 | 0.00 | 0.00 | 0.00 | 76 | 1014.0 | |
| 20260503035017 | 64 | 0.0 | 0.0 | 0.00 | 0.00 | 0.00 | 74 | 1013.9 | |
| 20260503034037 | 64 | 0.0 | 0.0 | 0.00 | 0.00 | 0.00 | 71 | 1013.7 | |
| 20260503033017 | 65 | 0.0 | 0.0 | 0.00 | 0.00 | 0.00 | 71 | 1013.6 | |
| 20260503032017 | 65 | 0.0 | 0.0 | 0.00 | 0.00 | 0.00 | 71 | 1013.5 | |
| 20260503031016 | 66 | 0.0 | 0.0 | 0.00 | 0.00 | 0.00 | 69 | 1013.4 | |
| 20260503030016 | 67 | 0.0 | 0.0 | 0.00 | 0.00 | 0.00 | 68 | 1013.3 | |
| 20260503025017 | 68 | 0.0 | 0.0 | 0.00 | 0.00 | 0.00 | 67 | 1013.3 | |
| 20260503024017 | 68 | 0.0 | 2.0 | 0.00 | 0.00 | 0.00 | 66 | 1013.2 |